EW6266 Weather Reports


time (UTC)temp
F
wind
direction
speed
knots
gust
knots
rain 1hr
in
rain 24hr
in
rain mn
in
humidity
%
barometer
mb
20260505200046 73 339 2.6 8.7 0.00 0.00 0.00 55 1007.0
20260505194540 73 292 2.6 4.3 0.00 0.00 0.00 55 1007.0
20260505193039 73 307 0.9 4.3 0.00 0.00 0.00 60 1007.0
20260505191537 72 303 0.9 4.3 0.00 0.00 0.00 58 1007.0
20260505190038 71 244 0.9 5.2 0.00 0.00 0.00 63 1007.1
20260505184531 70 289 2.6 9.6 0.00 0.00 0.00 58 1007.3
20260505183031 69 30 0.9 5.2 0.00 0.00 0.00 64 1007.2
20260505181526 69 309 3.5 7.8 0.00 0.00 0.00 63 1007.1
20260505180023 68 321 5.2 9.6 0.00 0.00 0.00 66 1007.1
20260505174520 68 197 3.5 7.8 0.00 0.00 0.00 68 1007.1
20260505173018 67 245 6.1 9.6 0.00 0.00 0.00 66 1007.0
20260505171521 66 270 5.2 10.4 0.00 0.00 0.00 71 1007.0
20260505170015 65 246 6.1 8.7 0.00 0.00 0.00 71 1006.9
20260505164509 65 244 5.2 10.4 0.00 0.00 0.00 73 1006.9
20260505163008 64 254 7.0 11.3 0.00 0.00 0.00 73 1006.8
20260505161502 63 273 6.1 10.4 0.00 0.00 0.00 75 1006.7
20260505153055 61 254 7.0 11.3 0.00 0.00 0.00 77 1006.6
20260505151554 61 226 5.2 11.3 0.00 0.00 0.00 78 1006.5
20260505124525 46 300 0.0 0.0 0.00 0.00 0.00 86 1005.2
20260505123024 47 300 0.0 0.0 0.00 0.00 0.00 86 1005.1
20260505121521 46 300 0.0 0.0 0.00 0.00 0.00 88 1005.0
20260505120019 46 300 0.0 0.0 0.00 0.00 0.00 85 1004.8
20260505114515 48 300 0.0 2.6 0.00 0.00 0.00 86 1004.7
20260505113012 48 171 0.9 1.7 0.00 0.00 0.00 86 1004.7
20260505111513 49 171 0.0 1.7 0.00 0.00 0.00 84 1004.5
20260505101503 51 171 0.0 1.7 0.00 0.00 0.00 79 1004.1
20260505100100 52 171 0.0 2.6 0.00 0.00 0.00 79 1004.1
20260505094559 51 171 0.9 1.7 0.00 0.00 0.00 83 1003.9
20260505093107 51 171 0.0 0.9 0.00 0.00 0.00 81 1003.8
20260505091554 52 171 0.0 1.7 0.00 0.00 0.00 79 1003.8
20260505090052 52 171 0.0 1.7 0.00 0.00 0.00 81 1003.8
20260505084552 53 171 2.6 4.3 0.00 0.00 0.00 79 1003.7
20260505083052 54 154 1.7 4.3 0.00 0.00 0.00 80 1003.8
20260505081553 53 173 1.7 5.2 0.00 0.00 0.00 82 1003.6
20260505080049 52 244 1.7 3.5 0.00 0.00 0.00 84 1003.5
20260505074545 52 216 0.0 1.7 0.00 0.00 0.00 81 1003.4
20260505073048 54 216 0.0 1.7 0.00 0.00 0.00 76 1003.3
20260505071550 55 216 0.0 2.6 0.00 0.00 0.00 75 1003.3
20260505070036 54 216 0.0 2.6 0.00 0.00 0.00 76 1003.1
20260505064534 53 240 0.0 2.6 0.00 0.00 0.00 77 1002.9
20260505063033 53 267 1.7 3.5 0.00 0.00 0.00 75 1002.7
20260505061533 56 279 0.0 1.7 0.00 0.00 0.00 72 1002.7
20260505060033 55 279 0.9 1.7 0.00 0.00 0.00 73 1002.5
20260505054548 54 279 0.9 2.6 0.00 0.00 0.00 74 1002.4
20260505053040 58 279 0.0 1.7 0.00 0.00 0.00 67 1002.4
20260505051537 57 279 0.9 2.6 0.00 0.00 0.00 68 1002.4
20260505041528 58 279 1.7 2.6 0.00 0.00 0.00 71 1002.1
20260505040035 58 175 0.9 1.7 0.00 0.00 0.00 72 1002.0
20260505034526 61 175 0.0 1.7 0.00 0.00 0.00 69 1001.9
20260505033031 62 175 0.0 0.9 0.00 0.00 0.00 69 1001.7
20260505031525 66 175 0.0 0.0 0.00 0.00 0.00 65 1001.6
20260505030027 69 175 0.0 0.0 0.00 0.00 0.00 62 1001.6
20260505024524 72 175 0.0 1.7 0.00 0.00 0.00 55 1001.5
20260505023024 75 175 1.7 3.5 0.00 0.00 0.00 47 1001.5
20260505021526 77 71 0.9 1.7 0.00 0.00 0.00 38 1001.6
20260505020021 79 71 0.0 0.9 0.00 0.00 0.00 35 1001.6
20260505014521 78 71 0.0 1.7 0.00 0.00 0.00 39 1001.7
20260505013019 77 165 0.0 3.5 0.00 0.00 0.00 38 1001.8
20260505011520 77 47 1.7 5.2 0.00 0.00 0.00 36 1002.0
20260505010017 78 333 1.7 4.3 0.00 0.00 0.00 43 1002.0
20260505004516 78 9 1.7 4.3 0.00 0.00 0.00 42 1002.1
20260505003015 78 63 0.0 4.3 0.00 0.00 0.00 43 1002.2
20260505001515 78 329 2.6 4.3 0.00 0.00 0.00 37 1002.3
20260505000013 78 335 4.3 8.7 0.00 0.00 0.00 37 1002.3
20260504234513 78 22 1.7 8.7 0.00 0.00 0.00 35 1002.3
20260504233013 78 340 3.5 8.7 0.00 0.00 0.00 33 1002.3
20260504231509 78 331 2.6 7.0 0.00 0.00 0.00 35 1002.4
20260504230009 78 5 5.2 8.7 0.00 0.00 0.00 39 1002.6
20260504224506 78 302 6.1 9.6 0.00 0.00 0.00 39 1002.7
20260504223005 78 360 3.5 8.7 0.00 0.00 0.00 33 1002.8
20260504221503 79 331 3.5 7.8 0.00 0.00 0.00 35 1003.0
20260504220124 79 332 4.3 9.6 0.00 0.00 0.00 38 1003.0
20260504214600 78 355 2.6 5.2 0.00 0.00 0.00 40 1003.2
20260504213101 77 330 2.6 7.8 0.00 0.00 0.00 41 1003.3
20260504211557 76 326 7.0 14.8 0.00 0.00 0.00 43 1003.5
20260504210054 77 71 10.4 14.8 0.00 0.00 0.00 43 1003.5
20260504204552 78 346 3.5 8.7 0.00 0.00 0.00 43 1003.6
20260504203050 78 351 1.7 4.3 0.00 0.00 0.00 41 1003.8
20260504201546 76 325 0.9 11.3 0.00 0.00 0.00 42 1003.9